Location: Bowman Observatory
(41.0326°N, 73.6210°W)
Time: 01:32:41
(UTC-04:00)

Cosmos 2297 - Visible Passes

Search period start: 18 April 2014 00:00
Search period end: 28 April 2014 00:00
Orbit: 838 x 857 km, 71.0° (Epoch: 16 April)

Date Brightness Start Highest point End Pass type
(mag) Time Alt. Az. Time Alt. Az. Time Alt. Az.
18 Apr 5.8 00:39:09 19° NE 00:39:09 19° NE 00:40:49 10° NE visible
18 Apr 5.4 02:21:04 24° NW 02:21:04 24° NW 02:24:31 10° N visible
19 Apr 5.8 00:25:56 19° NE 00:25:56 19° NE 00:27:34 10° NE visible
19 Apr 5.4 02:07:51 25° NNW 02:07:51 25° NNW 02:11:17 10° N visible
20 Apr 5.8 00:12:41 19° NE 00:12:41 19° NE 00:14:18 10° NE visible
20 Apr 5.4 01:54:36 25° NNW 01:54:36 25° NNW 01:58:04 10° N visible
20 Apr 5.7 23:59:25 19° NE 23:59:25 19° NE 00:01:03 10° NE visible
21 Apr 5.4 01:41:19 25° NNW 01:41:19 25° NNW 01:44:51 10° N visible
21 Apr 5.7 23:46:05 20° NE 23:46:05 20° NE 23:47:48 10° NE visible
22 Apr 5.4 01:27:59 26° NW 01:27:59 26° NW 01:31:37 10° N visible
22 Apr 5.6 23:32:43 20° NE 23:32:43 20° NE 23:34:33 10° NE visible
23 Apr 5.4 01:14:37 27° NW 01:14:37 27° NW 01:18:24 10° N visible
23 Apr 5.5 23:19:18 21° NE 23:19:18 21° NE 23:21:17 10° NE visible
24 Apr 5.3 01:01:12 28° NW 01:01:12 28° NW 01:05:11 10° N visible
24 Apr 5.3 23:05:49 23° NE 23:05:49 23° NE 23:08:02 10° NE visible
25 Apr 5.3 00:47:43 29° NW 00:47:43 29° NW 00:51:57 10° N visible
25 Apr 5.2 22:52:16 25° NE 22:52:16 25° NE 22:54:46 10° NE visible
26 Apr 5.2 00:34:09 30° NW 00:34:09 30° NW 00:38:44 10° N visible
26 Apr 5.0 22:38:38 27° ENE 22:38:38 27° ENE 22:41:31 10° NE visible
27 Apr 5.1 00:20:30 31° WNW 00:20:33 31° WNW 00:25:30 10° N visible
27 Apr 4.7 22:24:53 30° ENE 22:24:53 30° ENE 22:28:16 10° NE visible
